DIRECTV 7S

Last updated on Fri Feb 19 2021 06:33:48 GMT+0000 (Coordinated Universal Time)

1 28238U 04016A 21049.73534703 -.00000018 00000-0 00000-0 0 9992 2 28238 0.1222 91.3187 0002789 25.7159 142.3557 0.98917602 61563
UTC large
Height (km)
Speed (km/s)
/
Latitude / Longitude
Inclination (degrees)
Orbital Period (minutes)
Azimuth
Elevation
Range (km)
Doppler Factor

Next 0 passes for location: London (51.5072 / 0.1276)

Sorry there are no passes over London.